This demonstration page uses our WeatherBlox Daily Observations layout. Learn more.

Left ArrowRight Arrow

Hourly Observations for March 19, 2020

Temp ( °F °C ) Dew Point ( °F °C ) Humidity (%) Winds ( mph kmh ) Pressure ( in mb ) Visibility ( mi km ) Precip ( " mm )
12:53 am 00:53 Clear 37 2.8 35 1.7 93 93 Calm 29.90 1013 10 16 0.00 0.00
1:53 am 01:53 Clear 36 2.2 34 1.1 93 93 N 3 6 29.90 1013 10 16 0.00 0.00
2:53 am 02:53 Clear 36 2.2 34 1.1 93 93 Calm 29.91 1013 7 11 0.00 0.00
3:24 am 03:24 Mostly Clear with Mist and Fog 35 1.7 33 0.6 93 93 W 6 9 29.93 1014 3 5 0.00 0.00
3:26 am 03:26 Partly Cloudy with Mist and Fog 35 1.7 33 0.6 93 93 W 6 9 29.93 1014 2 3 0.00 0.00
3:28 am 03:28 Mostly Cloudy with Mist and Fog 35 1.7 33 0.6 93 93 W 6 9 29.93 1014 1 2 0.00 0.00
3:35 am 03:35 Mostly Cloudy with Fog 34 1.1 33 0.6 97 97 Calm 29.94 1014 1 1 0.00 0.00
3:53 am 03:53 Mostly Cloudy with Fog 34 1.1 33 0.6 97 97 Calm 29.91 1013 1 1 0.00 0.00
3:59 am 03:59 Mostly Cloudy with Mist and Fog 34 1.1 33 0.6 97 97 Calm 29.94 1014 2 2 0.00 0.00
4:02 am 04:02 Partly Cloudy with Mist and Fog 34 1.1 33 0.6 97 97 NNE 3 6 29.94 1014 3 5 0.00 0.00
4:53 am 04:53 Clear 32 0 31 -0.6 96 96 ESE 3 6 29.92 1013 8 13 0.00 0.00
5:14 am 05:14 Mostly Clear 33 0.6 31 -0.6 92 92 Calm 29.96 1014 8 13 0.00 0.00
5:39 am 05:39 Partly Cloudy with Mist and Fog 33 0.6 31 -0.6 92 92 Calm 29.97 1015 2 2 0.00 0.00
5:46 am 05:46 Mostly Cloudy with Mist and Fog 32 0 30 -1.1 92 92 Calm 29.97 1015 2 3 0.00 0.00
5:53 am 05:53 Mostly Cloudy with Mist and Fog 32 0 30 -1.1 92 92 Calm 29.95 1014 1 1 0.00 0.00
6:02 am 06:02 Partly Cloudy with Mist and Fog 32 0 31 -0.6 96 96 Calm 29.98 1015 2 2 0.00 0.00
6:04 am 06:04 Partly Cloudy with Mist and Fog 32 0 31 -0.6 96 96 Calm 29.98 1015 3 5 0.00 0.00
6:53 am 06:53 Clear 32 0 31 -0.6 96 96 Calm 29.96 1015 9 14 0.00 0.00
7:53 am 07:53 Sunny 33 0.6 32 0 96 96 Calm 30.00 1016 10 16 0.00 0.00
8:53 am 08:53 Sunny 39 3.9 36 2.2 89 89 Calm 30.02 1017 10 16 0.00 0.00
9:53 am 09:53 Sunny 45 7.2 38 3.3 77 77 NE 3 6 30.02 1017 10 16 0.00 0.00
10:53 am 10:53 Sunny 48 8.9 39 3.9 71 71 Calm 30.04 1017 10 16 0.00 0.00
11:53 am 11:53 Sunny 52 11.1 35 1.7 53 53 Calm 30.04 1017 10 16 0.00 0.00
12:53 pm 12:53 Sunny 55 12.8 34 1.1 45 45 Calm 30.04 1017 10 16 0.00 0.00
1:53 pm 13:53 Sunny 58 14.4 34 1.1 41 41 VRB 3 6 30.03 1017 10 16 0.00 0.00
2:53 pm 14:53 Sunny 59 15 33 0.6 38 38 SW 5 7 30.01 1016 10 16 0.00 0.00
3:53 pm 15:53 Sunny 60 15.6 33 0.6 36 36 Calm 30.01 1016 10 16 0.00 0.00
4:53 pm 16:53 Sunny 61 16.1 33 0.6 35 35 SSE 3 6 30.01 1016 10 16 0.00 0.00
5:53 pm 17:53 Sunny 61 16.1 33 0.6 35 35 VRB 6 9 30.01 1016 10 16 0.00 0.00
6:53 pm 18:53 Sunny 59 15 36 2.2 42 42 S 7 11 30.02 1017 10 16 0.00 0.00
7:53 pm 19:53 Clear 55 12.8 36 2.2 49 49 SSW 3 6 30.03 1017 10 16 0.00 0.00
8:53 pm 20:53 Clear 52 11.1 37 2.8 57 57 Calm 30.06 1018 10 16 0.00 0.00
9:53 pm 21:53 Partly Cloudy 47 8.3 38 3.3 71 71 N 6 9 30.08 1019 10 16 0.00 0.00
10:53 pm 22:53 Cloudy 45 7.2 38 3.3 77 77 Calm 30.10 1019 10 16 0.00 0.00
11:53 pm 23:53 Partly Cloudy 44 6.7 37 2.8 76 76 NNW 3 6 30.12 1020 10 16 0.00 0.00

Powered by AerisWeather